Starlink 3287

operational
NORAD ID: 50172 Int'l Des: 2021-125 Owner: SPXS Country: US Constellation: starlink
LEOCIRCULAR

关于 Starlink 3287

正在加载描述...

实时位置

正在加载3D地球...

即将过境

高度历史

Altitude vs Time

uPlot chart will show altitude changes over time

两行轨道根数

1 50172U 21125S 25305.45459718 .00007506 00000-0 48968-3 0 9990
2 50172 53.2157 104.7885 0001320 100.4779 259.6362 15.08801015217278
Epoch: Nov 1, 2025 • Age: 28 hours

当前状态

高度 539.6 km
速度 7.60 km/s
星下点 17.65°N, 4.3°E
发射日期 Dec 18, 2021
运行时间 3.8 years
类型 internet

技术详情

分类 Payload
质量 290.00 kg
干质量 270.00 kg
总质量 290.00 kg
长度 0.20 m
直径 2.80 m
跨度 9.00 m
形状 Box + pan
制造商 SPXS
平台类型 Starlink
阶段状态 In Orbit
所有者/国家 SPXS/US

大型星座

Loading constellations...